Location: L�beck
(53.8752°N, 10.6787°E)
Time: 01:55:42
(UTC+01:00)

ISS - Pass Details

Date: 16 November 2017
Orbit: 402 x 407 km, 51.6° (Epoch: 19 November)

Event Time Altitude Azimuth Distance (km) Brightness Sun altitude
Exits shadow 05:38:16 13° 195° (SSW) 1,274 -1.4 -18.5°
Drops below altitude 10° 05:39:11 10° 180° (S) 1,451 -0.9 -18.4°
Sets 05:41:53 0° 155° (SSE) 2,306 0.5 -18.0°
